When you browse on this site, cookies collect data to enhance your experience and personalize the content and advertising you see.
Visit our Privacy Policy to learn more. By continuing to use the site, you agree to this use of cookies and data.
  • en France
  • Liste des pays
  • À 7 jours
  • Température de l'eau
  • Carte météo
  • Widgets météo
  • user-avatar
    Se connecter

    Météo par heure à Babruysk

    Ce jour, 21 Janvier, Mardi

    Heure Température Précipitation Vent Pression Humidité
    00:00 -3°C° 0 mm 6 m/s 761 mmHg 84%
    01:00 -2°C° 0 mm 5 m/s 760 mmHg 84%
    02:00 -1°C° 0 mm 5 m/s 760 mmHg 84%
    03:00 -1°C° 0 mm 5 m/s 759 mmHg 84%
    04:00 -2°C° 0 mm 6 m/s 758 mmHg 84%
    05:00 -2°C° 0 mm 6 m/s 758 mmHg 84%
    06:00 -2°C° 0 mm 6 m/s 757 mmHg 84%
    07:00 -2°C° 0 mm 6 m/s 756 mmHg 84%
    08:00 -2°C° 0 mm 6 m/s 756 mmHg 85%
    09:00 -1°C° 0 mm 6 m/s 755 mmHg 84%
    10:00 -1°C° 0 mm 7 m/s 755 mmHg 84%
    11:00 0°C° 0 mm 7 m/s 754 mmHg 83%
    12:00 0°C° 0 mm 7 m/s 754 mmHg 85%
    13:00 +2°C° 0 mm 7 m/s 753 mmHg 87%
    14:00 +2°C° 0 mm 7 m/s 753 mmHg 89%
    15:00 +2°C° 0 mm 7 m/s 752 mmHg 87%
    16:00 +2°C° 0 mm 7 m/s 752 mmHg 86%
    17:00 +1°C° 0 mm 8 m/s 751 mmHg 85%
    18:00 +1°C° 0 mm 8 m/s 751 mmHg 85%
    19:00 +1°C° 0 mm 8 m/s 751 mmHg 86%
    20:00 +1°C° 0 mm 8 m/s 750 mmHg 86%
    21:00 +2°C° 0 mm 7 m/s 750 mmHg 87%
    22:00 +3°C° 0 mm 7 m/s 750 mmHg 87%
    23:00 +3°C° 0 mm 7 m/s 749 mmHg 88%

    Demain, 22 Janvier, Mercredi

    Heure Température Précipitation Vent Pression Humidité
    00:00 +3°C° 0 mm 7 m/s 749 mmHg 87%
    01:00 +3°C° 0 mm 7 m/s 749 mmHg 87%
    02:00 +3°C° 0 mm 6 m/s 749 mmHg 87%
    03:00 +3°C° 0 mm 7 m/s 748 mmHg 87%
    04:00 +2°C° 0 mm 7 m/s 747 mmHg 88%
    05:00 +2°C° 0 mm 7 m/s 746 mmHg 89%
    06:00 +2°C° 0.3 mm 7 m/s 745 mmHg 87%
    07:00 +2°C° 0.3 mm 7 m/s 745 mmHg 86%
    08:00 +2°C° 0.3 mm 7 m/s 744 mmHg 85%
    09:00 +1°C° 1.1 mm 6 m/s 744 mmHg 88%
    10:00 0°C° 1.1 mm 5 m/s 743 mmHg 92%
    11:00 0°C° 1.1 mm 4 m/s 743 mmHg 95%
    12:00 0°C° 0.3 mm 4 m/s 743 mmHg 91%
    13:00 0°C° 0.3 mm 5 m/s 742 mmHg 87%
    14:00 +1°C° 0.3 mm 6 m/s 742 mmHg 83%
    15:00 -1°C° 0.2 mm 6 m/s 742 mmHg 79%
    16:00 -1°C° 0.2 mm 6 m/s 743 mmHg 76%
    17:00 -1°C° 0.2 mm 6 m/s 743 mmHg 73%
    18:00 -2°C° 0 mm 6 m/s 743 mmHg 73%
    19:00 -2°C° 0 mm 6 m/s 744 mmHg 73%
    20:00 -3°C° 0 mm 6 m/s 744 mmHg 72%
    21:00 -3°C° 0 mm 6 m/s 745 mmHg 75%
    22:00 -3°C° 0 mm 6 m/s 745 mmHg 78%
    23:00 -3°C° 0 mm 6 m/s 746 mmHg 81%

    Après-demain, 23 Janvier, Jeudi

    Heure Température Précipitation Vent Pression Humidité
    00:00 -3°C° 0 mm 6 m/s 746 mmHg 79%
    01:00 -3°C° 0 mm 6 m/s 747 mmHg 78%
    02:00 -3°C° 0 mm 6 m/s 748 mmHg 77%
    03:00 -4°C° 0 mm 6 m/s 748 mmHg 76%
    04:00 -4°C° 0 mm 6 m/s 748 mmHg 76%
    05:00 -4°C° 0 mm 6 m/s 749 mmHg 75%
    06:00 -4°C° 0 mm 5 m/s 749 mmHg 74%
    07:00 -4°C° 0 mm 5 m/s 750 mmHg 73%
    08:00 -4°C° 0 mm 5 m/s 751 mmHg 72%
    09:00 -4°C° 0 mm 5 m/s 751 mmHg 70%
    10:00 -3°C° 0 mm 6 m/s 752 mmHg 68%
    11:00 -2°C° 0 mm 7 m/s 752 mmHg 66%
    12:00 -2°C° 0 mm 6 m/s 752 mmHg 64%
    13:00 -2°C° 0 mm 6 m/s 752 mmHg 62%
    14:00 -1°C° 0 mm 6 m/s 753 mmHg 59%
    15:00 -2°C° 0 mm 6 m/s 753 mmHg 62%
    16:00 -2°C° 0 mm 5 m/s 753 mmHg 65%
    17:00 -2°C° 0 mm 5 m/s 753 mmHg 68%
    18:00 -3°C° 0 mm 4 m/s 754 mmHg 71%
    19:00 -3°C° 0 mm 4 m/s 754 mmHg 74%
    20:00 -3°C° 0 mm 4 m/s 754 mmHg 76%
    21:00 -3°C° 0 mm 4 m/s 754 mmHg 77%
    22:00 -2°C° 0 mm 3 m/s 754 mmHg 78%
    23:00 -2°C° 0 mm 3 m/s 755 mmHg 80%

    24 Janvier, Vendredi

    Heure Température Précipitation Vent Pression Humidité
    00:00 -2°C° 0 mm 3 m/s 754 mmHg 80%
    01:00 -3°C° 0 mm 4 m/s 754 mmHg 81%
    02:00 -3°C° 0 mm 4 m/s 754 mmHg 81%
    03:00 -3°C° 0 mm 4 m/s 753 mmHg 79%
    04:00 -4°C° 0 mm 5 m/s 753 mmHg 77%
    05:00 -4°C° 0 mm 5 m/s 753 mmHg 74%
    06:00 -2°C° 0 mm 5 m/s 752 mmHg 72%
    07:00 -2°C° 0 mm 5 m/s 752 mmHg 70%
    08:00 -2°C° 0 mm 5 m/s 752 mmHg 68%
    09:00 -2°C° 0 mm 5 m/s 751 mmHg 69%
    10:00 -2°C° 0 mm 5 m/s 751 mmHg 71%
    11:00 -1°C° 0 mm 5 m/s 751 mmHg 73%
    12:00 -1°C° 0 mm 5 m/s 751 mmHg 73%
    13:00 -1°C° 0 mm 5 m/s 751 mmHg 73%
    14:00 0°C° 0 mm 5 m/s 751 mmHg 74%
    15:00 0°C° 0 mm 5 m/s 751 mmHg 74%
    16:00 0°C° 0 mm 4 m/s 751 mmHg 73%
    17:00 -1°C° 0 mm 4 m/s 750 mmHg 73%
    18:00 -1°C° 0 mm 4 m/s 750 mmHg 71%
    19:00 -2°C° 0 mm 4 m/s 751 mmHg 69%
    20:00 -1°C° 0 mm 3 m/s 751 mmHg 67%
    21:00 -2°C° 0 mm 4 m/s 750 mmHg 68%
    22:00 -3°C° 0 mm 4 m/s 750 mmHg 69%
    23:00 -3°C° 0 mm 4 m/s 750 mmHg 70%

    25 Janvier, Samedi

    Heure Température Précipitation Vent Pression Humidité
    00:00 -3°C° 0 mm 4 m/s 750 mmHg 71%
    01:00 -3°C° 0 mm 4 m/s 749 mmHg 73%
    02:00 -3°C° 0 mm 4 m/s 749 mmHg 74%
    03:00 -4°C° 0 mm 4 m/s 749 mmHg 75%
    04:00 -4°C° 0 mm 4 m/s 749 mmHg 77%
    05:00 -4°C° 0 mm 3 m/s 749 mmHg 78%
    06:00 -4°C° 0 mm 3 m/s 748 mmHg 78%
    07:00 -4°C° 0 mm 3 m/s 748 mmHg 79%
    08:00 -4°C° 0 mm 3 m/s 748 mmHg 80%
    09:00 -2°C° 0 mm 3 m/s 748 mmHg 76%
    10:00 -2°C° 0 mm 3 m/s 748 mmHg 72%
    11:00 -1°C° 0 mm 3 m/s 748 mmHg 69%
    12:00 -1°C° 0 mm 3 m/s 748 mmHg 67%
    13:00 0°C° 0 mm 3 m/s 748 mmHg 66%
    14:00 0°C° 0 mm 3 m/s 748 mmHg 64%
    15:00 -1°C° 0 mm 3 m/s 748 mmHg 68%
    16:00 -1°C° 0 mm 2 m/s 748 mmHg 72%
    17:00 -2°C° 0 mm 2 m/s 748 mmHg 77%
    18:00 -2°C° 0 mm 2 m/s 748 mmHg 78%
    19:00 -2°C° 0 mm 2 m/s 748 mmHg 79%
    20:00 -2°C° 0 mm 2 m/s 747 mmHg 81%
    21:00 -2°C° 0 mm 2 m/s 748 mmHg 81%
    22:00 -2°C° 0 mm 2 m/s 748 mmHg 82%
    23:00 -2°C° 0 mm 2 m/s 748 mmHg 83%

    26 Janvier, Dimanche

    Heure Température Précipitation Vent Pression Humidité
    00:00 -2°C° 0 mm 2 m/s 748 mmHg 82%
    01:00 -2°C° 0 mm 2 m/s 748 mmHg 82%
    02:00 -2°C° 0 mm 2 m/s 747 mmHg 82%
    03:00 -2°C° 0 mm 2 m/s 747 mmHg 82%
    04:00 -2°C° 0 mm 2 m/s 747 mmHg 82%
    05:00 -2°C° 0 mm 2 m/s 748 mmHg 82%
    06:00 -2°C° 0 mm 2 m/s 748 mmHg 84%
    07:00 -3°C° 0 mm 2 m/s 748 mmHg 85%
    08:00 -3°C° 0 mm 2 m/s 748 mmHg 86%
    09:00 -2°C° 0 mm 2 m/s 748 mmHg 84%
    10:00 -2°C° 0 mm 2 m/s 749 mmHg 82%
    11:00 -1°C° 0 mm 3 m/s 749 mmHg 80%
    12:00 -1°C° 0 mm 3 m/s 749 mmHg 79%
    13:00 -1°C° 0 mm 3 m/s 749 mmHg 78%
    14:00 0°C° 0 mm 3 m/s 749 mmHg 77%
    15:00 -1°C° 0 mm 3 m/s 749 mmHg 80%
    16:00 -1°C° 0 mm 3 m/s 749 mmHg 83%
    17:00 -2°C° 0 mm 3 m/s 749 mmHg 86%
    18:00 -2°C° 0 mm 3 m/s 749 mmHg 87%
    19:00 -1°C° 0 mm 3 m/s 749 mmHg 88%
    20:00 -1°C° 0 mm 3 m/s 749 mmHg 89%
    21:00 -1°C° 0 mm 3 m/s 748 mmHg 91%
    22:00 -2°C° 0 mm 4 m/s 748 mmHg 92%
    23:00 -1°C° 0 mm 4 m/s 748 mmHg 94%
    Voir plus